Year,Month,Day,Hour,Minute,Value (Times are PST for windspeed in km/hr)
2010,12,08,00,00,9.10
2010,12,08,00,01,8.70
2010,12,08,00,02,11.90
2010,12,08,00,03,9.90
2010,12,08,00,04,7.50
2010,12,08,00,05,11.20
2010,12,08,00,06,10.70
2010,12,08,00,07,13.20
2010,12,08,00,08,8.30
2010,12,08,00,09,9.30
2010,12,08,00,10,8.40
2010,12,08,00,11,11.70
2010,12,08,00,12,9.70
2010,12,08,00,13,9.30
2010,12,08,00,14,7.10
2010,12,08,00,15,8.60
2010,12,08,00,16,8.10
2010,12,08,00,17,12.20
2010,12,08,00,18,12.30
2010,12,08,00,19,9.10
2010,12,08,00,20,9.00
2010,12,08,00,21,8.30
2010,12,08,00,22,12.00
2010,12,08,00,23,11.30
2010,12,08,00,24,7.30
2010,12,08,00,25,12.10
2010,12,08,00,26,10.40
2010,12,08,00,27,7.40
2010,12,08,00,28,9.10
2010,12,08,00,29,8.50
2010,12,08,00,30,8.40
2010,12,08,00,31,17.80
2010,12,08,00,32,12.20
2010,12,08,00,33,8.70
2010,12,08,00,34,9.80
2010,12,08,00,35,10.80
2010,12,08,00,36,12.50
2010,12,08,00,37,9.80
2010,12,08,00,38,10.30
2010,12,08,00,39,10.00
2010,12,08,00,40,9.70
2010,12,08,00,41,11.20
2010,12,08,00,42,11.20
2010,12,08,00,43,14.90
2010,12,08,00,44,15.20
2010,12,08,00,45,14.30
2010,12,08,00,46,13.60
2010,12,08,00,47,12.70
2010,12,08,00,48,9.70
2010,12,08,00,49,13.20
2010,12,08,00,50,12.80
2010,12,08,00,51,12.20
2010,12,08,00,52,13.90
2010,12,08,00,53,10.80
2010,12,08,00,54,12.30
2010,12,08,00,55,11.20
2010,12,08,00,56,8.70
2010,12,08,00,57,9.70
2010,12,08,00,58,13.20
2010,12,08,00,59,12.20
2010,12,08,01,00,12.00
2010,12,08,01,01,11.40
2010,12,08,01,02,12.70
2010,12,08,01,03,8.30
2010,12,08,01,04,12.40
2010,12,08,01,05,11.10
2010,12,08,01,06,12.40
2010,12,08,01,07,15.20
2010,12,08,01,08,13.60
2010,12,08,01,09,11.30
2010,12,08,01,10,10.80
2010,12,08,01,11,14.60
2010,12,08,01,12,10.10
2010,12,08,01,13,10.50
2010,12,08,01,14,8.70
2010,12,08,01,15,11.90
2010,12,08,01,16,13.80
2010,12,08,01,17,12.50
2010,12,08,01,18,8.90
2010,12,08,01,19,8.60
2010,12,08,01,20,11.20
2010,12,08,01,21,12.10
2010,12,08,01,22,14.60
2010,12,08,01,23,13.80
2010,12,08,01,24,15.60
2010,12,08,01,25,14.80
2010,12,08,01,26,15.00
2010,12,08,01,27,14.60
2010,12,08,01,28,14.00
2010,12,08,01,29,12.60
2010,12,08,01,30,12.30
2010,12,08,01,31,12.90
2010,12,08,01,32,8.70
2010,12,08,01,33,12.90
2010,12,08,01,34,13.10
2010,12,08,01,35,9.30
2010,12,08,01,36,9.60
2010,12,08,01,37,9.90
2010,12,08,01,38,14.90
2010,12,08,01,39,13.70
2010,12,08,01,40,15.40
2010,12,08,01,41,14.10
2010,12,08,01,42,14.00
2010,12,08,01,43,14.70
2010,12,08,01,44,12.60
2010,12,08,01,45,12.00
2010,12,08,01,46,10.80
2010,12,08,01,47,12.00
2010,12,08,01,48,12.50
2010,12,08,01,49,10.90
2010,12,08,01,50,12.10
2010,12,08,01,51,7.60
2010,12,08,01,52,9.70
2010,12,08,01,53,10.30
2010,12,08,01,54,11.90
2010,12,08,01,55,14.30
2010,12,08,01,56,12.50
2010,12,08,01,57,17.00
2010,12,08,01,58,16.30
2010,12,08,01,59,14.10
2010,12,08,02,00,10.00
2010,12,08,02,01,12.70
2010,12,08,02,02,12.20
2010,12,08,02,03,12.40
2010,12,08,02,04,12.70
2010,12,08,02,05,11.70
2010,12,08,02,06,12.80
2010,12,08,02,07,12.40
2010,12,08,02,08,11.00
2010,12,08,02,09,9.80
2010,12,08,02,10,6.90
2010,12,08,02,11,9.40
2010,12,08,02,12,11.30
2010,12,08,02,13,12.00
2010,12,08,02,14,11.20
2010,12,08,02,15,13.20
2010,12,08,02,16,14.60
2010,12,08,02,17,14.20
2010,12,08,02,18,11.40
2010,12,08,02,19,12.90
2010,12,08,02,20,11.40
2010,12,08,02,21,12.00
2010,12,08,02,22,6.60
2010,12,08,02,23,13.00
2010,12,08,02,24,12.00
2010,12,08,02,25,10.40
2010,12,08,02,26,10.50
2010,12,08,02,27,10.30
2010,12,08,02,28,9.80
2010,12,08,02,29,10.10
2010,12,08,02,30,9.30
2010,12,08,02,31,11.10
2010,12,08,02,32,10.10
2010,12,08,02,33,11.20
2010,12,08,02,34,11.20
2010,12,08,02,35,10.10
2010,12,08,02,36,10.70
2010,12,08,02,37,12.30
2010,12,08,02,38,10.10
2010,12,08,02,39,12.70
2010,12,08,02,40,7.90
2010,12,08,02,41,12.00
2010,12,08,02,42,12.60
2010,12,08,02,43,11.80
2010,12,08,02,44,9.70
2010,12,08,02,45,10.90
2010,12,08,02,46,10.80
2010,12,08,02,47,13.60
2010,12,08,02,48,13.60
2010,12,08,02,49,13.00
2010,12,08,02,50,11.00
2010,12,08,02,51,11.30
2010,12,08,02,52,13.50
2010,12,08,02,53,16.20
2010,12,08,02,54,14.40
2010,12,08,02,55,15.20
2010,12,08,02,56,17.20
2010,12,08,02,57,12.40
2010,12,08,02,58,11.10
2010,12,08,02,59,10.80
2010,12,08,03,00,12.10
2010,12,08,03,01,15.00
2010,12,08,03,02,12.90
2010,12,08,03,03,11.10
2010,12,08,03,04,9.30
2010,12,08,03,05,9.70
2010,12,08,03,06,11.60
2010,12,08,03,07,13.40
2010,12,08,03,08,13.60
2010,12,08,03,09,8.60
2010,12,08,03,10,12.50
2010,12,08,03,11,10.50
2010,12,08,03,12,10.60
2010,12,08,03,13,13.40
2010,12,08,03,14,11.20
2010,12,08,03,15,12.30
2010,12,08,03,16,14.80
2010,12,08,03,17,12.00
2010,12,08,03,18,11.80
2010,12,08,03,19,12.70
2010,12,08,03,20,10.40
2010,12,08,03,21,13.60
2010,12,08,03,22,9.70
2010,12,08,03,23,13.30
2010,12,08,03,24,10.20
2010,12,08,03,25,12.30
2010,12,08,03,26,12.50
2010,12,08,03,27,11.50
2010,12,08,03,28,8.20
2010,12,08,03,29,9.00
2010,12,08,03,30,9.10
2010,12,08,03,31,13.00
2010,12,08,03,32,15.90
2010,12,08,03,33,13.70
2010,12,08,03,34,14.10
2010,12,08,03,35,15.80
2010,12,08,03,36,11.70
2010,12,08,03,37,12.10
2010,12,08,03,38,11.00
2010,12,08,03,39,11.20
2010,12,08,03,40,11.70
2010,12,08,03,41,13.60
2010,12,08,03,42,13.20
2010,12,08,03,43,14.50
2010,12,08,03,44,17.40
2010,12,08,03,45,18.00
2010,12,08,03,46,14.90
2010,12,08,03,47,15.90
2010,12,08,03,48,14.90
2010,12,08,03,49,15.10
2010,12,08,03,50,13.40
2010,12,08,03,51,12.30
2010,12,08,03,52,10.00
2010,12,08,03,53,12.40
2010,12,08,03,54,14.00
2010,12,08,03,55,14.90
2010,12,08,03,56,17.20
2010,12,08,03,57,10.50
2010,12,08,03,58,10.50
2010,12,08,03,59,16.40
2010,12,08,04,00,15.10
2010,12,08,04,01,12.90
2010,12,08,04,02,13.30
2010,12,08,04,03,14.00
2010,12,08,04,04,11.00
2010,12,08,04,05,17.50
2010,12,08,04,06,17.80
2010,12,08,04,07,14.50
2010,12,08,04,08,16.20
2010,12,08,04,09,18.00
2010,12,08,04,10,17.20
2010,12,08,04,11,14.20
2010,12,08,04,12,16.70
2010,12,08,04,13,16.10
2010,12,08,04,14,14.30
2010,12,08,04,15,10.50
2010,12,08,04,16,14.60
2010,12,08,04,17,14.60
2010,12,08,04,18,14.30
2010,12,08,04,19,15.30
2010,12,08,04,20,13.80
2010,12,08,04,21,16.90
2010,12,08,04,22,17.80
2010,12,08,04,23,13.40
2010,12,08,04,24,13.50
2010,12,08,04,25,14.30
2010,12,08,04,26,16.00
2010,12,08,04,27,13.90
2010,12,08,04,28,14.20
2010,12,08,04,29,17.30
2010,12,08,04,30,15.50
2010,12,08,04,31,12.10
2010,12,08,04,32,15.20
2010,12,08,04,33,18.70
2010,12,08,04,34,17.30
2010,12,08,04,35,19.00
2010,12,08,04,36,18.10
2010,12,08,04,37,14.80
2010,12,08,04,38,19.10
2010,12,08,04,39,17.30
2010,12,08,04,40,10.70
2010,12,08,04,41,10.00
2010,12,08,04,42,13.20
2010,12,08,04,43,17.00
2010,12,08,04,44,16.30
2010,12,08,04,45,19.80
2010,12,08,04,46,16.30
2010,12,08,04,47,15.60
2010,12,08,04,48,14.90
2010,12,08,04,49,15.30
2010,12,08,04,50,17.60
2010,12,08,04,51,21.60
2010,12,08,04,52,13.00
2010,12,08,04,53,13.50
2010,12,08,04,54,15.20
2010,12,08,04,55,13.50
2010,12,08,04,56,14.30
2010,12,08,04,57,15.90
2010,12,08,04,58,17.80
2010,12,08,04,59,15.50
2010,12,08,05,00,16.40
2010,12,08,05,01,18.40
2010,12,08,05,02,12.40
2010,12,08,05,03,14.60
2010,12,08,05,04,18.40
2010,12,08,05,05,13.70
2010,12,08,05,06,15.10
2010,12,08,05,07,18.50
2010,12,08,05,08,16.10
2010,12,08,05,09,14.00
2010,12,08,05,10,16.50
2010,12,08,05,11,16.70
2010,12,08,05,12,14.30
2010,12,08,05,13,15.40
2010,12,08,05,14,15.90
2010,12,08,05,15,12.90
2010,12,08,05,16,22.10
2010,12,08,05,17,22.20
2010,12,08,05,18,14.40
2010,12,08,05,19,17.50
2010,12,08,05,20,17.20
2010,12,08,05,21,22.20
2010,12,08,05,22,20.70
2010,12,08,05,23,16.90
2010,12,08,05,24,19.10
2010,12,08,05,25,19.20
2010,12,08,05,26,21.60
2010,12,08,05,27,19.20
2010,12,08,05,28,17.90
2010,12,08,05,29,16.90
2010,12,08,05,30,23.10
2010,12,08,05,31,19.00
2010,12,08,05,32,16.60
2010,12,08,05,33,19.20
2010,12,08,05,34,15.60
2010,12,08,05,35,14.90
2010,12,08,05,36,13.10
2010,12,08,05,37,15.10
2010,12,08,05,38,19.20
2010,12,08,05,39,20.50
2010,12,08,05,40,16.20
2010,12,08,05,41,18.90
2010,12,08,05,42,14.20
2010,12,08,05,43,13.60
2010,12,08,05,44,14.60
2010,12,08,05,45,20.40
2010,12,08,05,46,15.50
2010,12,08,05,47,17.20
2010,12,08,05,48,15.10
2010,12,08,05,49,16.30
2010,12,08,05,50,13.50
2010,12,08,05,51,13.80
2010,12,08,05,52,15.60
2010,12,08,05,53,14.20
2010,12,08,05,54,16.30
2010,12,08,05,55,15.10
2010,12,08,05,56,11.00
2010,12,08,05,57,17.80
2010,12,08,05,58,18.70
2010,12,08,05,59,11.70
2010,12,08,06,00,19.70
2010,12,08,06,01,16.30
2010,12,08,06,02,21.60
2010,12,08,06,03,19.50
2010,12,08,06,04,18.70
2010,12,08,06,05,18.10
2010,12,08,06,06,20.30
2010,12,08,06,07,20.20
2010,12,08,06,08,20.60
2010,12,08,06,09,20.60
2010,12,08,06,10,16.30
2010,12,08,06,11,18.10
2010,12,08,06,12,17.70
2010,12,08,06,13,16.50
2010,12,08,06,14,21.70
2010,12,08,06,15,20.80
2010,12,08,06,16,18.90
2010,12,08,06,17,20.30
2010,12,08,06,18,23.30
2010,12,08,06,19,16.80
2010,12,08,06,20,19.20
2010,12,08,06,21,13.70
2010,12,08,06,22,16.90
2010,12,08,06,23,13.10
2010,12,08,06,24,15.60
2010,12,08,06,25,20.60
2010,12,08,06,26,18.20
2010,12,08,06,27,16.20
2010,12,08,06,28,18.90
2010,12,08,06,29,19.00
2010,12,08,06,30,20.20
2010,12,08,06,31,22.20
2010,12,08,06,32,25.60
2010,12,08,06,33,25.90
2010,12,08,06,34,34.10
2010,12,08,06,35,32.50
2010,12,08,06,36,26.80
2010,12,08,06,37,26.00
2010,12,08,06,38,27.50
2010,12,08,06,39,25.40
2010,12,08,06,40,19.40
2010,12,08,06,41,24.90
2010,12,08,06,42,25.50
2010,12,08,06,43,32.90
2010,12,08,06,44,28.50
2010,12,08,06,45,28.80
2010,12,08,06,46,26.80
2010,12,08,06,47,26.00
2010,12,08,06,48,28.50
2010,12,08,06,49,25.90
2010,12,08,06,50,18.10
2010,12,08,06,51,16.30
2010,12,08,06,52,23.80
2010,12,08,06,53,21.80
2010,12,08,06,54,16.80
2010,12,08,06,55,14.40
2010,12,08,06,56,18.00
2010,12,08,06,57,19.80
2010,12,08,06,58,19.50
2010,12,08,06,59,19.50
2010,12,08,07,00,21.50
2010,12,08,07,01,20.50
2010,12,08,07,02,18.20
2010,12,08,07,03,21.70
2010,12,08,07,04,15.30
2010,12,08,07,05,7.30
2010,12,08,07,06,11.60
2010,12,08,07,07,12.70
2010,12,08,07,08,13.20
2010,12,08,07,09,12.10
2010,12,08,07,10,15.90
2010,12,08,07,11,15.90
2010,12,08,07,12,15.60
2010,12,08,07,13,17.10
2010,12,08,07,14,22.70
2010,12,08,07,15,21.60
2010,12,08,07,16,17.30
2010,12,08,07,17,13.50
2010,12,08,07,18,15.10
2010,12,08,07,19,17.60
2010,12,08,07,20,15.80
2010,12,08,07,21,16.10
2010,12,08,07,22,13.80
2010,12,08,07,23,14.50
2010,12,08,07,24,19.60
2010,12,08,07,25,26.90
2010,12,08,07,26,27.90
2010,12,08,07,27,22.20
2010,12,08,07,28,26.70
2010,12,08,07,29,19.30
2010,12,08,07,30,21.40
2010,12,08,07,31,21.90
2010,12,08,07,32,18.50
2010,12,08,07,33,23.80
2010,12,08,07,34,18.90
2010,12,08,07,35,19.80
2010,12,08,07,36,23.80
2010,12,08,07,37,14.90
2010,12,08,07,38,24.00
2010,12,08,07,39,19.20
2010,12,08,07,40,19.20
2010,12,08,07,41,26.60
2010,12,08,07,42,21.10
2010,12,08,07,43,18.80
2010,12,08,07,44,22.40
2010,12,08,07,45,17.30
2010,12,08,07,46,24.40
2010,12,08,07,47,24.20
2010,12,08,07,48,17.40
2010,12,08,07,49,26.40
2010,12,08,07,50,21.50
2010,12,08,07,51,29.20
2010,12,08,07,52,18.20
2010,12,08,07,53,19.50
2010,12,08,07,54,21.80
2010,12,08,07,55,24.70
2010,12,08,07,56,16.30
2010,12,08,07,57,18.50
2010,12,08,07,58,12.30
2010,12,08,07,59,11.20
2010,12,08,08,00,13.50
2010,12,08,08,01,16.20
2010,12,08,08,02,12.40
2010,12,08,08,03,13.00
2010,12,08,08,04,15.80
2010,12,08,08,05,15.90
2010,12,08,08,06,12.20
2010,12,08,08,07,20.80
2010,12,08,08,08,14.90
2010,12,08,08,09,11.30
2010,12,08,08,10,18.30
2010,12,08,08,11,11.40
2010,12,08,08,12,12.70
2010,12,08,08,13,15.80
2010,12,08,08,14,14.90
2010,12,08,08,15,13.40
2010,12,08,08,16,15.10
2010,12,08,08,17,14.80
2010,12,08,08,18,11.70
2010,12,08,08,19,17.20
2010,12,08,08,20,15.00
2010,12,08,08,21,13.60
2010,12,08,08,22,16.00
2010,12,08,08,23,16.60
2010,12,08,08,24,16.00
2010,12,08,08,25,16.40
2010,12,08,08,26,16.10
2010,12,08,08,27,14.30
2010,12,08,08,28,12.00
2010,12,08,08,29,19.40
2010,12,08,08,30,15.90
2010,12,08,08,31,11.20
2010,12,08,08,32,16.00
2010,12,08,08,33,19.50
2010,12,08,08,34,18.70
2010,12,08,08,35,16.80
2010,12,08,08,36,18.70
2010,12,08,08,37,9.80
2010,12,08,08,38,13.70
2010,12,08,08,39,16.90
2010,12,08,08,40,13.80
2010,12,08,08,41,12.50
2010,12,08,08,42,16.20
2010,12,08,08,43,10.90
2010,12,08,08,44,16.40
2010,12,08,08,45,13.90
2010,12,08,08,46,17.40
2010,12,08,08,47,15.00
2010,12,08,08,48,15.20
2010,12,08,08,49,10.40
2010,12,08,08,50,16.70
2010,12,08,08,51,16.00
2010,12,08,08,52,17.60
2010,12,08,08,53,19.30
2010,12,08,08,54,17.90
2010,12,08,08,55,15.10
2010,12,08,08,56,17.50
2010,12,08,08,57,18.50
2010,12,08,08,58,13.30
2010,12,08,08,59,14.80
2010,12,08,09,00,15.50
2010,12,08,09,01,21.10
2010,12,08,09,02,17.30
2010,12,08,09,03,21.70
2010,12,08,09,04,20.90
2010,12,08,09,05,16.80
2010,12,08,09,06,18.20
2010,12,08,09,07,15.10
2010,12,08,09,08,11.70
2010,12,08,09,09,16.80
2010,12,08,09,10,16.00
2010,12,08,09,11,19.70
2010,12,08,09,12,18.80
2010,12,08,09,13,22.90
2010,12,08,09,14,22.70
2010,12,08,09,15,22.70
2010,12,08,09,16,20.50
2010,12,08,09,17,17.60
2010,12,08,09,18,22.10
2010,12,08,09,19,19.80
2010,12,08,09,20,19.90
2010,12,08,09,21,20.40
2010,12,08,09,22,18.60
2010,12,08,09,23,18.80
2010,12,08,09,24,11.80
2010,12,08,09,25,20.00
2010,12,08,09,26,16.00
2010,12,08,09,27,15.20
2010,12,08,09,28,10.30
2010,12,08,09,29,12.00
2010,12,08,09,30,13.30
2010,12,08,09,31,12.40
2010,12,08,09,32,8.90
2010,12,08,09,33,9.30
2010,12,08,09,34,5.30
2010,12,08,09,35,7.20
2010,12,08,09,36,7.50
2010,12,08,09,37,11.60
2010,12,08,09,38,7.30
2010,12,08,09,39,5.10
2010,12,08,09,40,12.00
2010,12,08,09,41,11.60
2010,12,08,09,42,11.70
2010,12,08,09,43,15.20
2010,12,08,09,44,12.10
2010,12,08,09,45,15.70
2010,12,08,09,46,13.90
2010,12,08,09,47,11.20
2010,12,08,09,48,15.30
2010,12,08,09,49,11.60
2010,12,08,09,50,13.00
2010,12,08,09,51,14.40
2010,12,08,09,52,14.80
2010,12,08,09,53,10.10
2010,12,08,09,54,12.60
2010,12,08,09,55,11.90
2010,12,08,09,56,9.20
2010,12,08,09,57,10.70
2010,12,08,09,58,8.90
2010,12,08,09,59,5.20
2010,12,08,10,00,6.60
2010,12,08,10,01,10.40
2010,12,08,10,02,13.50
2010,12,08,10,03,14.10
2010,12,08,10,04,12.60
2010,12,08,10,05,10.10
2010,12,08,10,06,13.30
2010,12,08,10,07,7.90
2010,12,08,10,08,10.10
2010,12,08,10,09,13.00
2010,12,08,10,10,9.60
2010,12,08,10,11,9.50
2010,12,08,10,12,10.50
2010,12,08,10,13,9.30
2010,12,08,10,14,7.60
2010,12,08,10,15,8.20
2010,12,08,10,16,10.00
2010,12,08,10,17,12.20
2010,12,08,10,18,12.90
2010,12,08,10,19,9.20
2010,12,08,10,20,8.10
2010,12,08,10,21,7.40
2010,12,08,10,22,8.70
2010,12,08,10,23,11.60
2010,12,08,10,24,10.50
2010,12,08,10,25,10.70
2010,12,08,10,26,8.30
2010,12,08,10,27,8.70
2010,12,08,10,28,11.70
2010,12,08,10,29,8.30
2010,12,08,10,30,11.80
2010,12,08,10,31,8.20
2010,12,08,10,32,12.60
2010,12,08,10,33,10.40
2010,12,08,10,34,10.40
2010,12,08,10,35,9.80
2010,12,08,10,36,8.50
2010,12,08,10,37,8.10
2010,12,08,10,38,12.40
2010,12,08,10,39,10.20
2010,12,08,10,40,6.00
2010,12,08,10,41,10.60
2010,12,08,10,42,9.30
2010,12,08,10,43,9.80
2010,12,08,10,44,10.00
2010,12,08,10,45,12.60
2010,12,08,10,46,12.40
2010,12,08,10,47,8.40
2010,12,08,10,48,8.50
2010,12,08,10,49,14.00
2010,12,08,10,50,9.10
2010,12,08,10,51,16.30
2010,12,08,10,52,13.60
2010,12,08,10,53,9.90
2010,12,08,10,54,16.70
2010,12,08,10,55,14.80
2010,12,08,10,56,13.20
2010,12,08,10,57,13.40
2010,12,08,10,58,8.50
2010,12,08,10,59,11.10
2010,12,08,11,00,13.30
2010,12,08,11,01,16.70
2010,12,08,11,02,13.90
2010,12,08,11,03,15.90
2010,12,08,11,04,16.90
2010,12,08,11,05,16.50
2010,12,08,11,06,13.50
2010,12,08,11,07,15.50
2010,12,08,11,08,15.70
2010,12,08,11,09,15.90
2010,12,08,11,10,17.90
2010,12,08,11,11,11.10
2010,12,08,11,12,12.60
2010,12,08,11,13,11.10
2010,12,08,11,14,13.00
2010,12,08,11,15,16.10
2010,12,08,11,16,13.70
2010,12,08,11,17,17.20
2010,12,08,11,18,12.80
2010,12,08,11,19,13.80
2010,12,08,11,20,11.00
2010,12,08,11,21,13.20
2010,12,08,11,22,17.50
2010,12,08,11,23,9.50
2010,12,08,11,24,14.70
2010,12,08,11,25,11.60
2010,12,08,11,26,11.00
2010,12,08,11,27,15.20
2010,12,08,11,28,13.80
2010,12,08,11,29,11.60
2010,12,08,11,30,19.80
2010,12,08,11,31,14.20
2010,12,08,11,32,14.30
2010,12,08,11,33,17.10
2010,12,08,11,34,13.70
2010,12,08,11,35,14.40
2010,12,08,11,36,16.70
2010,12,08,11,37,18.40
2010,12,08,11,38,14.40
2010,12,08,11,39,11.00
2010,12,08,11,40,13.70
2010,12,08,11,41,9.50
2010,12,08,11,42,11.30
2010,12,08,11,43,15.60
2010,12,08,11,44,12.30
2010,12,08,11,45,15.10
2010,12,08,11,46,16.40
2010,12,08,11,47,15.20
2010,12,08,11,48,11.90
2010,12,08,11,49,15.00
2010,12,08,11,50,21.50
2010,12,08,11,51,19.50
2010,12,08,11,52,18.30
2010,12,08,11,53,14.30
2010,12,08,11,54,12.00
2010,12,08,11,55,14.20
2010,12,08,11,56,17.50
2010,12,08,11,57,15.50
2010,12,08,11,58,16.50
2010,12,08,11,59,20.10
2010,12,08,12,00,13.90
2010,12,08,12,01,18.20
2010,12,08,12,02,14.60
2010,12,08,12,03,13.20
2010,12,08,12,04,9.60
2010,12,08,12,05,8.40
2010,12,08,12,06,12.50
2010,12,08,12,07,13.90
2010,12,08,12,08,10.00
2010,12,08,12,09,14.10
2010,12,08,12,10,10.20
2010,12,08,12,11,10.90
2010,12,08,12,12,8.90
2010,12,08,12,13,14.10
2010,12,08,12,14,9.30
2010,12,08,12,15,10.00
2010,12,08,12,16,9.70
2010,12,08,12,17,15.70
2010,12,08,12,18,11.50
2010,12,08,12,19,11.30
2010,12,08,12,20,6.10
2010,12,08,12,21,7.50
2010,12,08,12,22,10.50
2010,12,08,12,23,10.50
2010,12,08,12,24,8.90
2010,12,08,12,25,11.60
2010,12,08,12,26,9.10
2010,12,08,12,27,10.40
2010,12,08,12,28,8.70
2010,12,08,12,29,9.50
2010,12,08,12,30,10.30
2010,12,08,12,31,10.50
2010,12,08,12,32,9.90
2010,12,08,12,33,11.20
2010,12,08,12,34,9.20
2010,12,08,12,35,11.70
2010,12,08,12,36,6.50
2010,12,08,12,37,9.80
2010,12,08,12,38,8.70
2010,12,08,12,39,7.50
2010,12,08,12,40,6.80
2010,12,08,12,41,9.40
2010,12,08,12,42,14.60
2010,12,08,12,43,8.60
2010,12,08,12,44,10.50
2010,12,08,12,45,10.00
2010,12,08,12,46,9.90
2010,12,08,12,47,9.70
2010,12,08,12,48,8.10
2010,12,08,12,49,7.00
2010,12,08,12,50,8.40
2010,12,08,12,51,8.30
2010,12,08,12,52,10.80
2010,12,08,12,53,11.60
2010,12,08,12,54,14.90
2010,12,08,12,55,9.20
2010,12,08,12,56,11.70
2010,12,08,12,57,11.60
2010,12,08,12,58,9.00
2010,12,08,12,59,10.50
2010,12,08,13,00,10.00
2010,12,08,13,01,7.40
2010,12,08,13,02,10.80
2010,12,08,13,03,12.10
2010,12,08,13,04,11.10
2010,12,08,13,05,11.00
2010,12,08,13,06,10.40
2010,12,08,13,07,9.20
2010,12,08,13,08,13.60
2010,12,08,13,09,8.40
2010,12,08,13,10,8.40
2010,12,08,13,11,11.30
2010,12,08,13,12,8.80
2010,12,08,13,13,8.20
2010,12,08,13,14,9.20
2010,12,08,13,15,8.70
2010,12,08,13,16,10.00
2010,12,08,13,17,8.80
2010,12,08,13,18,10.60
2010,12,08,13,19,8.50
2010,12,08,13,20,11.70
2010,12,08,13,21,9.10
2010,12,08,13,22,7.10
2010,12,08,13,23,13.10
2010,12,08,13,24,7.90
2010,12,08,13,25,9.70
2010,12,08,13,26,9.40
2010,12,08,13,27,10.70
2010,12,08,13,28,11.20
2010,12,08,13,29,15.80
2010,12,08,13,30,13.10
2010,12,08,13,31,12.70
2010,12,08,13,32,12.10
2010,12,08,13,33,8.30
2010,12,08,13,34,9.90
2010,12,08,13,35,11.80
2010,12,08,13,36,10.40
2010,12,08,13,37,10.60
2010,12,08,13,38,16.50
2010,12,08,13,39,9.70
2010,12,08,13,40,13.70
2010,12,08,13,41,11.00
2010,12,08,13,42,14.30
2010,12,08,13,43,15.40
2010,12,08,13,44,12.00
2010,12,08,13,45,12.20
2010,12,08,13,46,9.70
2010,12,08,13,47,10.10
2010,12,08,13,48,13.40
2010,12,08,13,49,13.50
2010,12,08,13,50,10.00
2010,12,08,13,51,10.00
2010,12,08,13,52,8.10
2010,12,08,13,53,7.60
2010,12,08,13,54,7.50
2010,12,08,13,55,10.10
2010,12,08,13,56,7.70
2010,12,08,13,57,10.60
2010,12,08,13,58,10.60
2010,12,08,13,59,8.70
2010,12,08,14,00,9.00
2010,12,08,14,01,8.10
2010,12,08,14,02,12.00
2010,12,08,14,03,11.80
2010,12,08,14,04,5.50
2010,12,08,14,05,9.60
2010,12,08,14,06,6.70
2010,12,08,14,07,8.10
2010,12,08,14,08,11.90
2010,12,08,14,09,7.70
2010,12,08,14,10,9.20
2010,12,08,14,11,5.70
2010,12,08,14,12,9.50
2010,12,08,14,13,7.20
2010,12,08,14,14,7.80
2010,12,08,14,15,7.50
2010,12,08,14,16,6.20
2010,12,08,14,17,7.70
2010,12,08,14,18,4.50
2010,12,08,14,19,8.90
2010,12,08,14,20,8.70
2010,12,08,14,21,9.70
2010,12,08,14,22,11.90
2010,12,08,14,23,11.60
2010,12,08,14,24,12.40
2010,12,08,14,25,10.90
2010,12,08,14,26,9.30
2010,12,08,14,27,14.90
2010,12,08,14,28,12.30
2010,12,08,14,29,10.10
2010,12,08,14,30,7.30
2010,12,08,14,31,12.20
2010,12,08,14,32,10.20
2010,12,08,14,33,10.20
2010,12,08,14,34,6.70
2010,12,08,14,35,8.40
2010,12,08,14,36,7.30
2010,12,08,14,37,14.30
2010,12,08,14,38,10.00
2010,12,08,14,39,14.90
2010,12,08,14,40,12.50
2010,12,08,14,41,13.10
2010,12,08,14,42,13.80
2010,12,08,14,43,14.50
2010,12,08,14,44,14.60
2010,12,08,14,45,13.00
2010,12,08,14,46,10.40
2010,12,08,14,47,12.60
2010,12,08,14,48,11.90
2010,12,08,14,49,14.90
2010,12,08,14,50,11.40
2010,12,08,14,51,8.90
2010,12,08,14,52,10.70
2010,12,08,14,53,7.40
2010,12,08,14,54,18.60
2010,12,08,14,55,13.40
2010,12,08,14,56,15.90
2010,12,08,14,57,20.20
2010,12,08,14,58,20.20
2010,12,08,14,59,16.30
2010,12,08,15,00,14.30
2010,12,08,15,01,14.90
2010,12,08,15,02,17.80
2010,12,08,15,03,16.60
2010,12,08,15,04,13.60
2010,12,08,15,05,15.90
2010,12,08,15,06,18.80
2010,12,08,15,07,14.30
2010,12,08,15,08,14.50
2010,12,08,15,09,13.00
2010,12,08,15,10,14.30
2010,12,08,15,11,9.00
2010,12,08,15,12,9.30
2010,12,08,15,13,12.40
2010,12,08,15,14,12.60
2010,12,08,15,15,11.10
2010,12,08,15,16,9.00
2010,12,08,15,17,11.00
2010,12,08,15,18,17.30
2010,12,08,15,19,12.00
2010,12,08,15,20,11.20
2010,12,08,15,21,11.50
2010,12,08,15,22,9.30
2010,12,08,15,23,6.80
2010,12,08,15,24,5.90
2010,12,08,15,25,1.10
2010,12,08,15,26,5.60
2010,12,08,15,27,5.30
2010,12,08,15,28,5.80
2010,12,08,15,29,4.10
2010,12,08,15,30,1.80
2010,12,08,15,31,5.10
2010,12,08,15,32,3.50
2010,12,08,15,33,1.20
2010,12,08,15,34,4.10
2010,12,08,15,35,1.70
2010,12,08,15,36,2.10
2010,12,08,15,37,3.10
2010,12,08,15,38,5.80
2010,12,08,15,39,3.10
2010,12,08,15,40,1.70
2010,12,08,15,41,1.50
2010,12,08,15,42,2.20
2010,12,08,15,43,2.50
2010,12,08,15,44,1.80
2010,12,08,15,45,3.00
2010,12,08,15,46,2.40
2010,12,08,15,47,3.70
2010,12,08,15,48,4.00
2010,12,08,15,49,4.50
2010,12,08,15,50,3.20
2010,12,08,15,51,3.00
2010,12,08,15,52,1.70
2010,12,08,15,53,2.00
2010,12,08,15,54,3.10
2010,12,08,15,55,1.80
2010,12,08,15,56,1.70
2010,12,08,15,57,1.60
2010,12,08,15,58,1.00
2010,12,08,15,59,2.40
2010,12,08,16,00,2.00
2010,12,08,16,01,0.70
2010,12,08,16,02,0.70
2010,12,08,16,03,0.00
2010,12,08,16,04,0.50
2010,12,08,16,05,0.90
2010,12,08,16,06,1.10
2010,12,08,16,07,0.30
2010,12,08,16,08,1.00
2010,12,08,16,09,1.30
2010,12,08,16,10,2.30
2010,12,08,16,11,1.30
2010,12,08,16,12,1.50
2010,12,08,16,13,0.90
2010,12,08,16,14,1.80
2010,12,08,16,15,1.60
2010,12,08,16,16,1.20
2010,12,08,16,17,0.60
2010,12,08,16,18,0.90
2010,12,08,16,19,1.40
2010,12,08,16,20,1.00
2010,12,08,16,21,0.00
2010,12,08,16,22,1.00
2010,12,08,16,23,1.70
2010,12,08,16,24,2.10
2010,12,08,16,25,2.30
2010,12,08,16,26,1.80
2010,12,08,16,27,2.40
2010,12,08,16,28,2.10
2010,12,08,16,29,2.90
2010,12,08,16,30,2.30
2010,12,08,16,31,1.50
2010,12,08,16,32,2.40
2010,12,08,16,33,2.70
2010,12,08,16,34,3.90
2010,12,08,16,35,3.50
2010,12,08,16,36,1.80
2010,12,08,16,37,0.10
2010,12,08,16,38,0.50
2010,12,08,16,39,3.40
2010,12,08,16,40,2.60
2010,12,08,16,41,2.60
2010,12,08,16,42,3.00
2010,12,08,16,43,1.70
2010,12,08,16,44,0.80
2010,12,08,16,45,0.40
2010,12,08,16,46,0.50
2010,12,08,16,47,1.40
2010,12,08,16,48,2.00
2010,12,08,16,49,2.00
2010,12,08,16,50,3.10
2010,12,08,16,51,3.20
2010,12,08,16,52,3.30
2010,12,08,16,53,3.10
2010,12,08,16,54,2.40
2010,12,08,16,55,2.20
2010,12,08,16,56,3.70
2010,12,08,16,57,4.20
2010,12,08,16,58,1.90
2010,12,08,16,59,2.70
2010,12,08,17,00,3.20
2010,12,08,17,01,3.50
2010,12,08,17,02,3.70
2010,12,08,17,03,2.90
2010,12,08,17,04,3.90
2010,12,08,17,05,3.10
2010,12,08,17,06,3.10
2010,12,08,17,07,0.60
2010,12,08,17,08,1.50
2010,12,08,17,09,1.50
2010,12,08,17,10,3.10
2010,12,08,17,11,3.10
2010,12,08,17,12,3.40
2010,12,08,17,13,3.60
2010,12,08,17,14,4.80
2010,12,08,17,15,5.00
2010,12,08,17,16,4.70
2010,12,08,17,17,5.20
2010,12,08,17,18,5.00
2010,12,08,17,19,4.10
2010,12,08,17,20,5.40
2010,12,08,17,21,6.40
2010,12,08,17,22,5.60
2010,12,08,17,23,4.00
2010,12,08,17,24,4.60
2010,12,08,17,25,2.70
2010,12,08,17,26,4.10
2010,12,08,17,27,3.80
2010,12,08,17,28,5.10
2010,12,08,17,29,4.40
2010,12,08,17,30,5.20
2010,12,08,17,31,5.80
2010,12,08,17,32,6.30